Huntsville, AL

8:29 AM CDT on July 26, 2016 (GMT -0500)
Huntsville International

Weather History for KHSV - October, 2012

Change the Weather History Date:

Wednesday, October 3, 2012

  Actual Average Record
Temperature  
Mean Temperature 64 °F 67 °F  
Max Temperature 76 °F 79 °F 94 °F (1911)
Min Temperature 52 °F 56 °F 34 °F (1974)
Degree Days  
Heating Degree Days 1 2  
Month to date heating degree days 5 6  
Since 1 July heating degree days 16 19  
Cooling Degree Days 0 4  
Month to date cooling degree days 7 13  
Year to date cooling degree days 2062 1883  
Growing Degree Days 13 (Base 50)    
Moisture  
Dew Point 54 °F    
Average Humidity 73    
Maximum Humidity 100    
Minimum Humidity 46    
Precipitation  
Precipitation 0.00 in 0.12 in 2.66 in (1995)
Month to date precipitation 0.73 0.34  
Year to date precipitation 40.28 40.38  
Snow  
Snow 0.00 in - - ()
Month to date snowfall 0.0  
Since 1 July snowfall 0.0  
Since 1 September snowfall 0.0  
Snow Depth 0.00 in    
Sea Level Pressure  
Sea Level Pressure 30.10 in    
Wind  
Wind Speed 5 mph (SE)    
Max Wind Speed 10 mph    
Max Gust Speed 13 mph    
Visibility 6 miles    
Events Fog    
T = Trace of Precipitation, MM = Missing Value Source: NWS Daily Summary

Daily Weather History Graph

Daily Weather History Graph

Search for Another Location

Airport or City:

Trip Planner

Search our weather history database for the weather conditions in past years. The results will help you decide how hot, cold, wet, or windy it might be!

Date:

Astronomy

Oct. 03, 2012 Rise Set
Actual Time 6:43 AM CDT 6:27 PM CDT
Civil Twilight 6:18 AM CDT 6:52 PM CDT
Nautical Twilight 5:49 AM CDT 7:22 PM CDT
Astronomical Twilight 5:20 AM CDT 7:51 PM CDT
Moon 8:29 PM CDT (10/3) 9:56 AM CDT (10/3)
Length of Visible Light 12h 34m
Length of Day
11h 44m
Waning Gibbous, 88% of the Moon is Illuminated
Oct 3
Waning Gibbous
Oct 8
Last Quarter
Oct 15
New
Oct 21
First Quarter
Oct 29
Full

Hourly Weather History & Observations

Time (CDT) Temp. Dew Point Humidity Pressure Visibility Wind Dir Wind Speed Gust Speed Precip Events Conditions
12:53 AM 55.0 °F 52.0 °F 89% 30.01 in 5.0 mi Calm Calm - N/A   Clear
1:53 AM 54.0 °F 51.1 °F 90% 30.02 in 6.0 mi East 4.6 mph - N/A   Clear
2:53 AM 54.0 °F 51.1 °F 90% 30.03 in 5.0 mi ESE 5.8 mph - N/A   Partly Cloudy
3:53 AM 53.1 °F 51.1 °F 93% 30.04 in 5.0 mi ESE 3.5 mph - N/A   Partly Cloudy
4:39 AM 53.6 °F 51.8 °F 94% 30.05 in 0.5 mi East 4.6 mph - N/A   Scattered Clouds
4:53 AM 52.0 °F 51.1 °F 97% 30.05 in 0.5 mi East 4.6 mph - N/A Fog Fog
5:20 AM 51.8 °F 50.0 °F 94% 30.07 in 0.2 mi East 4.6 mph - N/A   Mostly Cloudy
5:53 AM 52.0 °F 50.0 °F 93% 30.07 in 1.0 mi East 4.6 mph - N/A   Scattered Clouds
6:20 AM 51.8 °F 50.0 °F 94% 30.09 in 0.8 mi East 3.5 mph - N/A   Scattered Clouds
6:50 AM 51.8 °F 50.0 °F 94% 30.09 in 1.5 mi East 4.6 mph - N/A   Scattered Clouds
6:53 AM 52.0 °F 50.0 °F 93% 30.09 in 1.5 mi East 5.8 mph - N/A   Scattered Clouds
6:58 AM 51.8 °F 50.0 °F 94% 30.09 in 0.5 mi East 5.8 mph - N/A Fog Fog
7:24 AM 53.6 °F 51.8 °F 94% 30.10 in 2.0 mi ESE 4.6 mph - N/A   Partly Cloudy
7:34 AM 53.6 °F 51.8 °F 94% 30.11 in 4.0 mi ESE 4.6 mph - N/A   Partly Cloudy
7:53 AM 55.0 °F 53.1 °F 93% 30.12 in 6.0 mi ESE 3.5 mph - N/A   Partly Cloudy
8:43 AM 57.2 °F 55.4 °F 94% 30.14 in 9.0 mi ESE 5.8 mph - N/A   Scattered Clouds
8:53 AM 57.9 °F 55.9 °F 93% 30.13 in 7.0 mi ESE 4.6 mph - N/A Fog Patches of Fog
9:53 AM 64.9 °F 59.0 °F 81% 30.14 in 10.0 mi South 4.6 mph - N/A   Scattered Clouds
10:53 AM 70.0 °F 59.0 °F 68% 30.13 in 10.0 mi South 5.8 mph - N/A   Scattered Clouds
11:53 AM 71.1 °F 55.9 °F 59% 30.12 in 10.0 mi Calm Calm - N/A   Scattered Clouds
12:53 PM 73.0 °F 55.9 °F 55% 30.11 in 10.0 mi SW 6.9 mph - N/A   Scattered Clouds
1:53 PM 75.0 °F 55.9 °F 51% 30.10 in 10.0 mi WSW 6.9 mph - N/A   Mostly Cloudy
2:53 PM 75.9 °F 55.9 °F 50% 30.09 in 10.0 mi South 6.9 mph - N/A   Mostly Cloudy
3:53 PM 75.0 °F 54.0 °F 48% 30.10 in 10.0 mi South 9.2 mph - N/A   Mostly Cloudy
4:53 PM 73.9 °F 55.0 °F 52% 30.10 in 10.0 mi South 5.8 mph - N/A   Mostly Cloudy
5:53 PM 71.1 °F 57.0 °F 61% 30.11 in 10.0 mi South 4.6 mph - N/A   Mostly Cloudy
6:53 PM 64.9 °F 57.0 °F 75% 30.12 in 10.0 mi SE 4.6 mph - N/A   Partly Cloudy
7:53 PM 64.0 °F 57.9 °F 80% 30.14 in 10.0 mi SSE 3.5 mph - N/A   Partly Cloudy
8:53 PM 61.0 °F 55.9 °F 83% 30.16 in 10.0 mi East 5.8 mph - N/A   Partly Cloudy
9:53 PM 61.0 °F 57.0 °F 87% 30.17 in 10.0 mi SE 5.8 mph - N/A   Clear
10:53 PM 60.1 °F 55.9 °F 86% 30.19 in 10.0 mi East 4.6 mph - N/A   Clear
11:53 PM 59.0 °F 55.0 °F 87% 30.19 in 10.0 mi East 4.6 mph - N/A   Partly Cloudy